Location: Westminster
(33.3626°N, 96.4619°W)
Time: 12:12:43
(UTC+00:00)

Cosmos 1515 Rocket - Pass Details

Date: 02 July 2022
Orbit: 604 x 631 km, 82.5° (Epoch: 13 August)

Event Time Altitude Azimuth Distance (km) Brightness Sun altitude
Rises 09:54:32 0° 345° (NNW) 2,892 7.4 -15.5°
Reaches altitude 10° 09:56:51 10° 338° (NNW) 1,978 6.4 -15.1°
Maximum altitude 10:00:58 42° 268° (W) 878 4.0 -14.5°
Enters shadow 10:03:29 21° 208° (SSW) 1,388 4.8 -14.1°
